Wind_Speed
15 16 16 15 15 15 14 14 14 14 14 14 13 13 13 13 13 12 12 12 12 11 11 10 10 11 11 11 11 11 11 13 13 13 12 10 9 9 9 7 9 11 11 13 13 11 11 13 14 15 15 14 12 9 7 9 9 9 12 13 12 7 7 11 10 8 8 7 2 7 7 7 11 16 17 18 18 17 17 15 13 15 16 17 21 25 28 28
15 15 16 15 15 14 14 14 14 14 14 13 13 13 12 13 13 12 12 12 12 12 11 11 10 10 11 11 11 11 11 13 13 13 11 10 10 11 9 8 8 8 10 12 11 10 9 11 13 14 15 14 10 7 8 8 9 12 13 15 13 7 8 9 8 8 9 7 3 5 5 6 9 13 15 15 17 15 15 15 14 18 20 20 23 27 28 28
15 15 15 15 15 14 14 14 14 14 14 13 13 12 12 12 12 12 12 12 12 12 12 11 11 11 11 11 11 11 11 13 13 10 10 11 12 11 10 9 7 7 9 12 12 10 10 12 12 14 13 11 9 6 5 6 7 11 12 13 11 8 10 7 9 12 12 7 3 6 4 6 10 12 13 13 15 14 14 14 15 18 20 22 26 29 29 29
15 15 15 15 15 15 14 14 14 14 14 14 13 13 12 12 11 12 12 12 12 11 11 11 11 11 11 10 11 11 12 14 12 7 9 13 13 12 11 10 8 8 9 12 14 13 14 15 11 10 10 10 9 7 7 7 7 10 13 12 7 7 10 8 11 14 11 6 4 5 5 5 10 11 10 13 15 14 14 14 12 14 17 22 28 30 30 29
15 15 16 15 16 16 15 14 14 14 14 14 13 13 13 12 12 11 11 11 11 11 11 11 11 10 11 10 9 10 11 12 9 7 10 13 13 13 12 11 10 10 11 13 16 15 16 16 13 8 9 10 11 10 10 9 8 11 13 12 10 10 12 12 12 10 6 5 7 5 8 6 8 10 10 13 14 13 13 12 10 11 14 19 26 30 30 28
15 15 15 15 16 16 16 15 15 15 15 14 14 13 13 12 12 11 11 11 11 11 10 10 10 10 10 10 8 9 10 10 8 5 8 12 13 12 12 12 11 11 12 13 15 17 16 16 17 13 11 11 13 12 9 7 9 13 13 12 9 8 11 13 10 8 5 5 7 4 6 6 8 9 11 13 12 12 12 12 12 12 14 16 22 28 29 27
16 16 16 16 15 15 16 15 15 15 15 14 14 13 13 12 12 11 11 11 10 10 10 9 10 9 10 9 8 8 9 13 13 6 5 9 11 12 12 12 12 12 12 11 14 17 16 16 18 16 13 10 11 12 10 10 13 15 16 14 12 10 11 11 9 7 6 5 5 2 3 5 9 9 11 13 11 12 13 14 14 13 15 16 20 26 26 25
17 17 17 16 16 16 15 15 15 15 15 14 14 13 12 12 12 11 11 11 10 10 9 9 9 9 9 9 8 8 11 16 16 10 7 7 8 11 12 12 13 12 11 10 12 15 16 17 17 16 14 10 8 7 7 11 14 16 16 13 12 11 9 9 11 7 5 5 2 1 2 5 9 8 10 12 12 14 14 15 16 15 16 15 18 25 25 23
19 18 18 17 17 17 16 16 15 15 15 14 13 13 12 12 11 11 11 11 10 9 9 9 8 8 8 9 8 9 13 15 14 11 11 10 9 10 10 12 13 12 11 11 12 15 18 17 15 15 14 9 6 6 6 9 12 13 14 13 11 9 8 10 14 10 6 6 5 2 4 6 7 8 9 12 13 14 14 14 16 16 17 16 18 22 22 23
21 20 19 19 18 17 17 16 15 15 14 14 13 13 12 12 11 11 11 10 10 9 9 9 8 8 8 9 9 11 12 12 13 11 11 12 13 12 10 12 12 12 12 12 13 15 17 17 14 12 12 11 10 11 11 14 14 12 14 15 12 9 11 13 12 9 8 9 8 4 5 6 6 7 6 11 14 15 16 17 16 15 16 16 18 21 21 22
22 21 20 20 19 18 17 17 16 16 15 14 13 13 12 12 11 11 10 10 10 9 9 9 8 8 8 8 10 12 11 11 12 10 10 11 13 13 12 12 11 12 13 13 14 14 16 17 16 10 11 11 12 12 13 16 15 14 16 16 11 10 12 13 13 12 10 13 10 5 4 5 6 4 2 9 13 14 18 18 16 15 16 16 18 20 22 23
21 21 20 20 20 20 19 17 17 16 15 14 13 13 12 12 12 11 10 10 9 9 9 9 8 8 8 8 10 12 11 12 12 9 10 11 12 13 13 13 11 12 14 14 13 13 18 19 18 13 13 10 9 9 8 10 11 12 13 14 11 12 13 12 15 15 13 15 13 8 7 7 6 4 4 9 11 14 18 19 17 15 15 16 18 21 23 24
21 21 20 20 20 20 20 18 18 17 16 14 13 13 12 12 12 11 11 10 9 9 9 9 9 8 9 9 9 10 11 12 11 10 10 11 11 12 12 13 12 13 14 15 15 15 18 20 19 14 14 12 12 13 9 5 8 11 11 13 12 15 17 15 15 16 15 17 17 12 10 9 8 7 8 10 12 14 19 21 18 14 13 16 18 20 22 24
20 21 20 19 19 19 19 19 18 18 17 15 13 12 11 11 11 11 10 9 9 8 9 8 8 8 9 9 8 8 9 10 11 9 9 10 11 11 11 13 13 13 14 16 18 17 14 14 14 14 16 17 16 16 15 10 10 10 11 14 14 17 21 17 16 17 18 21 20 12 12 11 9 11 11 12 12 13 19 22 19 15 15 17 18 20 23 24
21 21 21 20 19 19 18 18 18 18 17 15 13 11 10 10 10 10 9 8 8 7 8 7 7 8 7 8 8 5 6 8 9 6 6 8 9 10 10 12 14 14 15 17 19 19 15 12 14 16 18 19 17 16 16 15 12 8 10 14 15 17 20 16 16 19 21 23 21 15 14 11 7 11 14 13 13 14 18 21 20 19 18 17 17 21 25 24
21 20 20 20 19 18 18 17 17 17 17 15 14 11 10 9 8 8 7 7 7 6 6 6 7 6 5 6 5 3 6 7 5 3 4 5 7 9 8 10 14 15 15 16 19 20 20 18 16 17 18 16 15 13 12 14 14 10 11 14 14 17 19 16 14 19 23 24 24 21 16 11 9 12 16 14 14 17 19 21 21 19 18 17 17 20 25 24
20 20 20 20 19 18 17 17 16 16 15 14 12 11 10 8 6 6 5 6 5 5 4 5 6 4 2 5 2 2 8 5 2 3 3 3 7 10 7 8 12 14 15 16 19 20 20 20 17 16 18 16 14 12 12 16 17 14 14 16 15 15 17 16 13 16 22 25 26 25 20 14 11 12 15 15 15 18 19 21 22 19 18 18 17 19 24 26
20 20 20 20 19 18 17 17 16 15 14 12 10 10 9 7 5 5 5 6 7 6 3 2 5 4 1 4 2 1 7 4 4 5 3 3 6 10 9 9 10 12 15 17 20 19 18 18 16 14 16 18 18 17 19 20 16 15 17 19 17 15 13 15 17 16 21 27 25 26 25 16 12 13 15 16 15 14 17 21 20 18 18 18 17 18 22 26
20 21 21 21 20 19 17 17 16 14 11 10 9 7 7 5 4 5 6 8 9 8 4 2 6 6 1 3 2 5 7 5 6 5 2 3 7 9 11 10 8 9 13 16 18 18 17 15 15 16 17 19 21 22 23 20 15 15 15 15 14 15 15 13 16 15 19 30 28 26 31 24 17 17 17 16 15 12 15 20 20 19 19 18 17 17 19 22
20 20 20 20 20 18 17 16 14 11 8 8 7 6 7 6 5 6 6 9 10 9 5 1 4 7 3 5 7 8 6 5 6 4 1 2 6 8 9 10 9 9 12 14 13 14 16 16 17 20 20 19 18 18 19 17 17 18 18 18 16 18 19 13 12 12 14 26 31 28 31 30 24 21 19 17 17 17 17 20 21 20 20 19 18 18 18 19
20 20 20 18 17 16 14 13 11 8 6 6 6 6 6 4 6 7 6 8 9 10 9 4 8 13 11 12 12 7 4 4 3 2 0 1 4 6 6 9 11 11 13 13 10 10 14 19 21 20 17 16 15 15 16 16 17 19 19 19 19 19 19 15 11 12 13 19 28 30 30 30 26 23 22 20 21 21 18 19 22 21 20 20 20 19 19 18
20 20 20 18 17 14 12 10 7 5 5 4 5 6 6 4 6 7 7 7 7 8 9 8 13 15 10 12 12 6 4 4 1 4 3 2 5 7 4 7 11 11 11 12 13 13 17 21 21 18 15 14 15 15 16 17 17 18 18 18 19 17 16 14 9 9 11 13 20 29 31 30 28 27 28 24 21 19 15 16 19 20 20 21 22 22 20 19
21 21 19 17 16 13 10 7 4 4 3 2 3 5 4 4 6 7 8 9 7 8 8 9 11 8 5 9 9 6 8 6 4 8 9 1 7 6 5 6 9 10 10 12 15 17 19 17 13 12 15 16 16 16 16 17 18 18 18 18 18 16 14 15 12 10 9 9 13 23 29 32 31 28 29 26 21 19 15 15 16 16 18 19 21 23 22 21
21 20 18 16 14 12 9 5 3 3 2 0 4 5 5 3 5 6 8 9 8 8 7 6 6 6 7 8 4 7 10 9 8 9 12 6 6 6 8 8 8 10 11 13 14 17 20 13 8 7 10 15 18 17 16 17 19 19 19 18 18 17 15 16 16 15 16 13 9 13 16 27 34 30 30 30 26 23 20 18 18 16 18 19 19 22 24 23
20 18 16 14 11 10 7 3 1 2 4 1 4 4 6 4 4 5 7 8 6 6 4 7 7 8 9 6 5 10 12 8 5 7 11 9 7 7 10 10 11 12 11 13 15 17 19 15 12 12 11 13 17 19 19 17 18 19 18 17 17 18 18 19 18 16 18 15 6 7 5 19 34 33 33 34 31 27 24 21 21 19 20 22 22 24 25 25
19 17 15 12 9 7 5 1 3 5 4 3 5 4 5 4 4 3 6 7 5 4 5 8 6 6 6 4 8 11 7 4 4 7 11 10 7 6 11 12 10 12 10 10 14 18 18 14 14 17 16 15 16 18 19 18 19 20 17 15 14 15 17 19 20 17 15 16 10 10 11 12 31 36 34 34 33 30 27 24 23 22 22 22 23 26 26 26
19 17 14 12 8 6 3 1 4 4 3 2 6 6 4 2 2 2 4 5 4 5 7 8 5 5 4 3 10 10 2 4 9 10 10 8 8 8 11 12 8 10 10 8 12 14 14 14 15 17 18 18 18 18 17 18 20 20 17 16 15 14 13 14 18 18 17 20 18 13 13 8 25 36 36 33 32 32 30 27 25 24 23 22 24 27 27 27
19 17 14 12 9 6 4 4 5 6 7 5 4 4 2 1 0 2 3 3 2 8 10 9 8 4 2 2 10 9 2 3 7 10 11 6 8 8 9 13 9 8 9 9 12 9 9 12 13 16 19 19 19 17 14 16 20 19 15 16 16 14 14 13 14 17 16 17 19 18 15 7 13 30 38 36 34 35 33 28 24 25 24 23 24 25 27 27
19 17 13 11 9 7 5 5 5 7 8 6 4 1 1 1 2 2 1 1 3 9 8 8 7 4 4 4 8 5 2 3 4 9 9 4 4 8 8 12 11 12 10 6 10 13 12 10 8 11 19 21 19 15 12 14 18 18 15 14 16 15 13 11 9 11 12 12 17 22 18 9 4 16 34 40 35 32 31 28 25 24 24 25 24 23 26 28
18 16 13 10 9 8 7 5 5 5 5 5 3 1 1 4 3 2 1 2 5 8 6 7 6 2 2 2 6 3 1 3 5 7 6 3 2 5 6 10 11 12 11 7 10 16 16 11 7 6 11 16 18 15 14 13 12 13 13 14 16 16 14 12 11 9 5 4 11 20 23 15 7 7 22 35 31 25 25 28 28 26 25 27 26 23 24 27
17 16 13 10 8 8 7 5 2 1 3 3 2 3 4 3 2 1 1 3 4 6 6 6 3 1 2 2 6 4 1 3 4 6 5 3 2 2 2 6 7 8 11 11 12 16 16 13 9 7 6 8 14 18 15 13 13 12 10 10 11 13 14 15 14 8 2 3 7 13 20 20 13 11 16 23 27 28 26 25 26 25 26 29 28 25 24 24
17 15 12 10 8 6 6 4 1 1 3 3 3 5 5 2 1 3 4 4 1 5 6 5 4 2 0 2 5 4 2 4 2 2 4 3 5 5 4 2 3 5 7 8 9 12 15 14 10 10 8 5 8 14 14 11 16 15 9 8 7 5 7 8 6 4 4 8 12 11 14 19 20 21 21 22 24 28 30 25 20 20 24 29 28 26 25 24
16 13 11 8 6 5 4 2 1 2 3 4 5 6 6 3 2 3 6 6 4 6 4 6 6 4 1 2 3 6 3 3 1 1 3 4 7 7 2 2 3 4 4 5 7 10 9 10 11 12 14 12 8 10 13 10 14 17 11 11 10 3 2 2 3 3 4 11 19 20 17 16 21 23 24 25 22 20 27 27 19 17 21 26 28 26 27 26
15 11 8 6 5 5 4 2 1 3 5 6 8 8 5 2 2 5 8 10 8 5 4 4 2 1 3 3 1 3 2 2 2 2 1 3 3 2 7 5 6 7 5 5 6 9 7 4 9 11 11 15 16 14 15 11 11 16 16 15 16 12 7 3 2 4 6 10 17 22 17 12 18 21 20 25 24 18 23 29 23 18 19 23 27 28 28 28
14 9 5 4 6 5 3 1 1 4 8 10 10 8 4 2 7 9 9 12 9 6 8 4 3 5 6 4 2 2 2 1 2 3 2 3 2 5 8 4 4 8 7 3 5 9 9 6 4 12 4 5 15 17 16 14 12 12 15 19 21 18 13 11 11 11 10 8 10 15 14 12 19 21 16 19 23 20 22 27 27 22 22 24 28 31 30 27
13 9 5 3 6 7 3 2 5 8 12 13 10 6 4 5 11 11 7 9 11 8 10 10 3 5 7 10 7 1 4 1 2 2 4 5 7 7 3 4 1 4 4 1 6 12 11 6 6 11 1 2 5 10 16 17 12 8 11 17 21 19 15 13 13 17 16 7 6 13 16 16 18 21 18 17 20 21 22 25 27 26 25 27 29 32 31 27
12 13 9 6 8 8 6 5 9 12 14 14 11 5 4 5 7 9 6 6 9 7 10 12 6 4 1 9 9 2 1 2 4 0 4 6 12 14 7 10 7 3 3 1 3 10 13 10 6 0 10 5 2 1 13 15 8 7 10 12 12 15 18 15 8 7 8 3 3 12 18 17 13 16 19 21 23 23 23 24 26 26 26 29 32 33 30 27
10 11 13 13 11 9 9 8 10 13 15 13 10 7 8 7 8 11 10 7 6 4 7 11 9 8 9 11 9 3 5 6 4 5 4 5 10 14 12 14 10 4 6 3 2 5 13 12 11 5 13 6 2 2 6 9 6 7 11 12 9 7 10 12 8 3 3 1 3 10 16 19 16 11 17 23 25 24 23 25 28 28 26 28 33 35 30 28
9 9 13 14 10 10 14 12 12 16 15 9 8 9 9 10 13 15 10 7 4 2 4 6 7 10 9 10 8 3 5 4 1 8 8 5 6 6 6 8 6 5 8 7 7 8 11 11 12 10 5 4 3 3 1 2 5 7 12 14 13 9 8 10 9 7 4 1 2 7 9 14 18 15 14 19 23 27 26 25 30 31 29 29 31 34 32 30
12 10 12 12 8 10 13 16 15 15 11 6 8 8 5 8 15 16 12 11 7 4 2 3 6 13 10 8 9 5 7 7 3 7 10 7 3 1 3 4 2 5 9 7 8 7 6 7 14 18 12 7 4 2 8 13 11 13 15 15 13 10 12 12 11 13 10 4 3 3 4 13 19 13 11 13 11 24 29 22 27 31 30 32 31 31 34 33
15 13 11 11 13 12 14 18 16 9 6 6 8 7 4 6 11 12 11 9 9 7 5 4 7 12 8 10 11 8 9 9 6 7 12 10 7 4 6 8 6 8 9 8 7 7 5 5 15 22 20 18 15 13 13 16 16 16 16 17 14 13 15 11 8 13 14 7 3 4 5 16 19 11 13 21 21 14 28 20 19 26 27 31 30 28 32 32
17 16 12 13 14 16 16 16 10 5 4 6 10 10 7 5 5 10 12 7 5 9 9 7 8 8 7 8 13 10 6 8 6 6 10 12 12 13 11 11 10 8 9 9 5 6 8 8 13 20 21 22 22 18 13 11 14 16 16 17 16 17 20 13 6 9 14 12 11 6 6 14 19 12 21 27 28 12 21 19 13 21 25 28 28 24 25 27
16 16 11 8 10 13 15 14 9 6 4 5 9 12 7 2 2 7 14 7 6 11 13 6 5 9 9 6 9 11 6 5 3 3 9 12 13 13 12 10 9 6 8 8 4 6 5 6 11 17 21 25 27 24 20 18 16 17 17 15 16 18 20 16 12 14 17 17 10 5 3 14 20 12 21 26 25 11 10 14 13 19 21 22 27 28 23 23
14 13 11 10 8 10 14 15 11 7 6 6 6 9 8 5 1 1 11 8 7 9 16 9 1 3 8 6 7 9 7 3 1 2 6 9 9 7 10 12 12 8 7 6 6 8 5 4 10 13 13 17 19 17 15 15 12 13 15 17 16 17 21 17 16 16 15 11 4 5 4 16 18 15 23 22 18 8 6 9 8 10 14 16 26 35 31 25
14 12 10 10 8 7 14 16 11 8 8 5 5 7 10 11 7 3 8 7 4 6 12 11 4 3 7 8 6 7 6 3 4 5 4 3 4 7 10 13 13 9 7 4 7 9 8 9 10 7 5 7 8 7 7 11 13 12 15 21 19 16 21 17 14 12 13 16 12 6 9 22 21 16 19 25 20 6 7 13 15 12 14 18 23 32 31 26
10 9 6 4 5 5 12 15 11 10 10 4 4 7 9 11 11 5 5 6 1 4 6 7 6 6 8 7 5 6 6 5 4 4 6 7 10 10 10 12 13 13 14 11 9 7 8 12 12 10 11 14 17 15 12 16 22 20 18 20 22 18 16 14 12 11 14 22 19 8 11 25 23 17 18 23 20 8 6 12 16 16 16 17 19 21 22 27
11 10 5 6 8 7 10 12 9 5 6 5 7 9 9 8 10 9 8 9 6 5 6 6 7 9 10 8 4 4 4 4 3 4 6 9 12 13 14 15 12 11 15 14 8 6 9 13 13 12 16 20 22 24 24 23 25 25 23 22 23 21 18 16 15 14 15 19 19 14 15 25 27 24 22 23 17 9 6 9 14 18 18 16 18 17 21 34
11 11 8 9 11 10 9 10 10 8 4 7 9 9 9 9 10 9 9 11 10 7 7 8 7 7 8 8 5 5 6 3 3 5 5 7 10 11 13 11 7 7 8 9 7 6 9 13 13 13 17 20 20 22 26 28 27 25 25 25 24 23 22 20 17 16 16 17 20 20 20 22 25 24 22 19 15 9 5 9 11 16 19 18 20 19 24 34
11 10 10 10 9 10 10 9 9 10 7 8 6 7 9 10 9 8 8 9 8 6 5 7 6 5 6 6 4 5 6 4 4 6 6 7 10 11 11 8 6 7 7 6 7 8 12 15 14 14 18 21 21 20 21 25 27 26 26 26 25 24 23 21 20 19 19 21 23 22 21 21 22 23 22 19 17 14 7 1 8 14 18 20 21 20 20 24
12 9 10 13 13 12 11 8 7 7 7 6 7 8 9 9 9 8 7 6 4 3 3 4 5 6 6 7 5 5 5 5 6 7 7 10 10 10 11 9 8 9 9 10 11 11 13 15 13 13 17 20 21 20 19 21 23 26 28 29 26 23 22 22 22 21 20 22 25 24 23 22 22 24 26 23 19 16 13 9 5 11 15 19 23 24 24 23
16 10 11 16 18 16 13 8 5 4 7 7 7 8 8 8 8 7 6 4 3 3 4 5 7 8 7 6 7 7 6 5 6 7 9 11 11 10 11 12 11 12 12 13 14 15 16 16 14 12 15 21 20 17 17 19 22 26 29 31 29 26 25 24 23 21 18 19 23 25 22 17 13 18 21 18 18 19 18 16 11 8 10 14 20 24 26 25
18 12 11 16 16 13 9 3 2 3 6 9 7 6 6 6 6 7 7 5 4 5 8 7 7 9 8 6 7 9 7 6 8 11 12 12 12 13 13 13 13 14 15 15 15 17 17 16 14 9 13 22 20 15 18 19 19 21 23 25 27 25 25 25 25 23 20 18 21 21 17 10 10 15 15 10 13 19 20 19 17 13 7 8 14 18 20 21
Wind_Direction
317 316 316 316 316 316 313 311 308 307 307 307 309 308 306 304 304 306 305 299 293 288 284 278 271 266 265 265 261 255 251 249 246 244 244 241 241 238 236 225 215 220 212 213 216 211 206 198 198 197 202 207 196 185 175 182 197 228 253 270 288 301 307 329 344 330 2 45 152 200 178 154 167 168 165 169 159 145 139 137 141 143 154 168 167 159 158 162
316 314 313 313 313 313 312 309 306 304 304 305 307 307 305 305 306 307 305 301 297 292 288 282 275 267 262 261 261 258 254 251 246 243 243 240 239 236 235 229 223 223 209 211 212 205 204 194 193 200 202 202 191 168 169 183 197 212 229 250 272 307 313 338 7 344 358 42 131 202 172 153 184 166 156 158 148 144 136 136 142 143 155 167 168 164 163 165
318 315 313 312 310 310 311 309 306 304 302 303 304 304 304 304 306 306 305 304 301 297 292 285 279 273 264 258 257 257 256 252 247 244 244 237 234 233 232 226 219 216 208 207 204 197 192 180 182 195 197 194 183 166 175 183 207 223 234 249 263 277 282 326 2 339 335 1 101 196 180 154 181 155 146 156 151 150 145 148 153 155 160 165 171 170 168 170
321 318 315 313 311 309 308 308 307 304 302 302 302 301 300 301 302 302 304 306 304 302 296 289 283 277 271 261 255 254 256 255 249 236 235 235 231 227 226 222 212 209 204 203 200 195 193 177 161 180 183 179 184 189 206 204 208 228 245 268 298 268 268 308 326 332 337 358 53 170 167 157 172 148 151 166 163 160 157 163 164 168 163 161 172 173 173 175
322 320 318 316 313 310 307 306 304 304 303 302 301 299 298 298 298 299 301 303 306 306 301 296 288 280 275 266 257 251 253 260 252 229 226 227 227 224 222 220 211 208 203 203 200 194 204 191 162 180 192 177 189 200 208 208 209 227 248 282 304 273 273 297 306 323 337 11 39 112 150 163 161 150 164 167 166 161 156 162 161 175 168 162 172 173 177 179
320 319 318 316 313 312 309 307 304 303 303 302 301 299 297 295 294 295 295 299 302 305 306 302 291 281 275 269 261 249 248 253 240 219 220 218 222 223 219 219 213 212 208 205 202 194 208 202 170 183 209 189 188 201 211 217 218 231 251 273 283 267 263 278 301 320 315 360 26 90 138 154 155 153 161 157 162 163 156 157 156 172 171 166 174 175 180 181
317 316 315 315 313 311 309 308 305 304 302 302 302 300 298 295 293 291 292 294 295 300 306 304 296 285 275 269 262 248 240 242 234 206 193 205 215 223 220 218 214 215 214 203 207 200 202 200 170 174 212 206 191 192 196 218 234 245 259 266 262 264 262 273 309 322 303 329 9 77 105 140 159 156 154 154 163 166 159 155 156 169 170 167 174 178 182 182
315 314 313 312 312 310 309 308 305 303 301 301 301 300 298 295 293 291 290 290 290 294 298 302 300 288 276 269 263 251 239 241 240 214 199 212 213 221 220 220 217 216 213 199 208 203 198 201 173 169 207 214 200 195 189 214 231 241 258 268 264 262 249 274 295 287 285 299 329 69 89 127 147 144 155 164 169 169 160 158 161 166 171 170 172 179 184 182
315 314 311 310 310 309 308 307 304 301 299 298 297 296 295 294 292 292 291 289 287 287 289 295 298 290 277 267 260 250 243 246 250 229 218 231 229 222 217 219 219 214 209 196 201 199 196 201 178 172 201 209 213 226 226 235 236 235 247 259 272 269 231 257 273 255 275 289 287 302 118 124 146 144 156 172 177 180 172 173 171 160 170 174 170 179 185 184
314 313 311 309 307 306 306 305 303 300 296 294 292 290 290 289 290 291 291 289 287 285 284 285 289 289 275 264 257 250 251 258 264 255 237 232 231 229 218 218 217 212 208 195 197 200 198 192 168 175 206 215 232 238 235 237 244 242 243 253 261 259 239 243 242 230 271 276 270 269 135 125 160 152 146 170 181 188 179 182 181 160 167 175 172 182 186 186
310 310 309 307 305 304 304 303 301 298 294 292 288 286 284 284 286 287 288 288 287 284 282 280 281 283 272 263 257 253 260 266 270 273 260 241 234 232 221 217 214 210 205 197 197 195 196 179 153 178 221 227 235 240 242 239 244 240 242 258 248 232 243 238 217 210 246 253 247 245 171 148 169 170 169 177 180 189 184 187 190 169 168 176 177 184 186 186
307 306 306 304 303 302 302 302 300 296 293 290 286 282 279 279 280 281 282 282 284 285 282 279 275 274 268 257 253 258 263 267 272 273 262 251 238 233 223 214 209 207 202 198 193 186 194 177 155 186 215 223 230 229 242 244 251 246 246 266 250 229 240 234 223 216 229 241 239 239 212 194 203 201 183 184 181 184 188 193 195 180 174 178 179 185 186 187
307 305 303 300 299 299 300 300 299 296 293 290 286 281 277 276 275 276 278 276 279 280 278 278 273 268 264 256 254 263 262 265 275 272 261 255 242 234 224 213 202 203 200 190 180 180 193 177 163 191 206 216 234 231 227 219 250 254 250 262 256 246 243 230 227 224 220 232 242 240 215 201 200 186 173 187 189 182 187 195 198 190 183 183 183 185 185 187
309 305 302 299 297 296 297 298 298 296 294 291 288 283 277 273 271 271 272 273 274 272 271 270 267 266 264 262 262 267 271 268 270 270 262 255 244 232 221 211 201 197 196 192 181 171 183 186 185 204 211 220 232 234 235 229 240 251 246 247 245 248 246 232 227 224 215 226 242 237 218 221 205 188 181 184 192 187 187 190 194 196 191 189 187 186 186 188
311 306 303 300 297 295 295 296 297 296 294 293 290 287 281 274 271 269 268 269 268 263 262 256 256 264 258 260 261 270 309 287 266 266 254 248 242 229 217 207 201 198 194 197 192 172 171 201 219 219 215 219 225 232 242 241 237 235 240 243 239 243 249 242 229 223 213 218 229 225 222 231 219 201 189 183 194 196 195 193 197 201 195 194 192 187 189 190
312 309 305 301 298 297 297 297 296 295 293 292 292 291 288 281 272 268 265 264 261 249 245 245 246 245 247 260 248 262 316 301 278 280 244 236 232 216 212 211 204 201 198 197 199 188 180 190 210 222 218 214 221 232 245 251 249 237 238 244 239 240 246 245 229 220 215 210 212 216 215 207 201 199 191 191 197 198 202 201 202 205 198 198 196 186 190 192
312 310 306 302 300 298 299 299 297 295 292 289 292 294 294 290 279 268 258 251 240 223 225 236 225 199 253 271 228 297 301 295 312 295 235 209 219 205 202 226 214 201 200 198 201 203 197 193 197 212 217 211 211 223 236 242 243 237 234 236 236 238 243 244 232 216 211 206 205 207 211 212 203 192 195 200 197 197 205 204 204 206 201 199 195 187 191 193
313 310 307 304 303 302 301 300 298 296 291 288 291 295 294 290 280 259 236 224 204 178 158 211 204 174 222 254 185 249 268 272 328 303 238 179 203 206 202 216 218 202 197 198 203 207 207 204 204 208 216 214 204 205 222 231 233 229 227 229 231 230 235 243 238 221 207 205 201 198 201 206 192 188 205 210 203 203 206 207 208 206 204 202 197 193 191 192
315 312 308 307 306 306 303 300 299 295 288 288 291 287 280 270 263 252 226 209 191 162 135 229 213 181 138 333 263 225 242 283 318 295 232 170 182 206 213 200 198 204 198 200 208 211 211 210 211 212 213 217 212 208 217 226 236 243 249 254 258 255 250 244 236 232 216 204 197 196 198 194 187 198 210 208 209 215 206 206 210 206 208 206 200 200 194 191
323 318 315 314 312 309 306 301 298 292 285 290 291 277 271 249 230 249 225 196 191 179 171 259 241 210 240 293 239 228 246 275 290 274 220 134 162 191 215 190 175 199 201 201 211 213 212 210 214 218 215 215 221 225 226 229 240 255 273 283 291 288 279 263 237 241 233 205 195 195 198 197 200 212 214 205 206 213 209 208 211 210 210 210 208 206 201 193
330 326 326 326 322 317 312 304 295 287 282 290 293 276 271 236 217 243 224 196 206 212 208 214 242 239 242 236 226 240 258 231 264 269 86 56 150 164 196 179 175 204 203 193 206 218 217 215 218 223 223 220 222 233 241 242 248 259 272 280 287 292 292 286 256 244 248 221 200 192 195 199 202 208 210 203 203 211 216 214 215 216 213 211 213 211 206 197
331 330 332 331 330 327 319 310 293 275 274 292 306 275 256 228 227 246 246 237 239 244 242 227 229 235 235 235 241 254 213 175 175 249 277 360 138 149 177 178 181 206 211 194 198 216 229 230 227 225 226 231 230 230 237 244 252 260 266 275 279 283 292 292 278 260 257 244 211 192 190 196 201 209 213 211 210 215 218 213 214 219 217 213 212 212 210 203
329 329 330 330 331 330 325 318 280 259 259 285 321 287 255 239 246 257 265 268 258 246 245 230 224 225 236 253 250 213 184 142 138 244 267 157 131 156 192 196 192 204 220 212 204 212 227 242 249 237 225 228 237 236 236 241 246 253 256 263 268 270 283 282 279 290 280 267 233 205 195 194 196 199 203 208 212 215 214 202 206 218 219 218 216 214 211 206
330 330 330 330 329 331 331 319 271 262 246 59 7 320 296 283 278 278 275 277 268 252 236 214 215 208 229 250 220 164 167 133 131 228 251 200 165 206 198 197 211 211 220 222 219 220 225 240 271 269 235 219 228 236 237 242 244 249 249 251 258 256 265 273 277 295 300 295 258 217 189 175 180 184 187 196 203 212 218 203 202 214 212 217 221 216 213 209
332 331 331 330 328 330 330 326 206 210 212 103 46 324 301 312 319 298 283 286 282 270 217 185 206 207 217 236 178 166 171 154 146 222 235 210 202 216 189 192 217 221 227 226 229 234 234 238 241 250 249 222 223 231 232 237 243 248 246 243 251 255 261 268 277 298 307 309 288 229 201 160 177 192 191 191 198 209 220 212 207 210 205 211 216 214 214 211
334 335 334 331 327 325 328 3 160 185 199 169 164 243 294 331 334 315 306 307 288 260 177 174 211 205 196 208 180 174 175 186 200 219 228 216 212 213 188 190 214 214 215 227 232 239 244 243 233 237 241 228 225 230 229 230 237 244 244 238 242 251 262 268 275 290 297 300 297 248 250 179 175 190 189 189 199 206 213 215 213 212 209 212 214 214 214 210
335 336 334 330 325 317 311 261 220 224 262 225 200 245 306 355 341 356 340 309 252 207 171 165 159 137 139 166 166 161 158 204 198 219 245 229 215 222 196 188 205 206 202 231 246 242 239 238 233 233 238 236 229 227 229 228 235 242 239 239 246 246 253 263 265 272 278 284 286 268 265 214 178 192 198 199 202 204 210 216 218 219 218 219 218 216 214 210
335 335 336 330 323 318 299 267 249 252 279 291 257 269 333 32 266 49 25 342 167 167 172 170 157 138 344 180 164 160 177 206 202 240 277 272 219 224 198 185 202 230 227 245 254 236 218 231 233 228 235 239 234 234 232 226 234 242 235 240 254 256 262 269 257 254 263 274 276 273 281 279 191 197 201 203 204 203 210 221 227 227 223 219 219 217 215 213
333 332 334 326 319 318 300 276 266 255 263 282 280 266 21 187 166 73 19 325 135 154 179 200 204 252 290 191 175 168 139 183 216 256 280 314 233 226 205 193 214 243 241 248 255 242 231 228 220 222 231 234 236 239 230 224 231 234 233 240 249 257 271 277 262 253 256 257 259 263 270 287 269 202 193 194 200 207 217 230 238 235 224 217 217 214 213 213
332 330 331 325 319 312 307 309 293 261 247 259 264 200 147 171 146 22 301 153 138 145 163 201 211 265 343 150 181 184 65 202 229 258 274 342 292 234 215 210 229 241 233 235 250 250 251 237 207 209 229 229 233 235 227 230 232 227 233 241 244 255 266 271 275 280 283 262 250 252 257 261 277 241 199 193 204 224 233 235 238 235 223 217 216 214 212 214
330 326 326 326 315 304 309 326 334 254 229 220 208 166 156 143 95 294 233 103 127 134 128 153 155 52 335 254 213 221 309 201 217 249 257 293 280 273 256 225 239 251 242 245 247 245 249 247 232 218 213 213 223 230 233 232 226 232 245 238 241 251 251 265 276 265 250 288 268 249 251 253 252 252 228 214 225 237 236 234 237 235 223 216 217 214 214 218
329 324 327 326 318 311 306 306 342 248 206 168 169 158 127 74 326 239 290 326 163 117 115 137 107 89 231 273 211 192 159 171 165 247 227 243 246 262 311 266 241 260 253 259 262 255 250 249 244 228 219 196 208 230 240 232 221 234 253 231 237 259 237 253 264 220 207 247 259 252 243 248 249 246 238 230 234 236 237 240 244 245 229 219 219 214 213 218
334 328 324 321 322 322 307 309 334 237 178 138 155 134 86 24 273 279 331 358 74 78 100 139 104 100 132 19 144 148 160 184 73 349 210 213 239 242 237 188 214 251 286 296 295 300 282 247 228 228 233 224 209 225 233 231 220 223 231 222 224 237 197 224 212 192 222 237 246 249 246 250 249 244 237 228 224 232 240 240 239 253 242 226 224 217 212 216
343 338 329 336 349 336 328 348 305 193 145 133 131 94 46 340 353 349 5 41 56 39 57 129 103 283 257 316 65 141 158 202 212 269 203 184 226 128 115 151 205 220 258 291 305 315 309 266 217 217 237 233 225 226 222 225 226 217 215 216 226 231 225 242 211 180 201 223 237 236 231 238 237 237 238 229 223 223 233 238 240 250 249 234 226 218 212 214
347 349 347 2 18 16 9 340 178 146 131 122 101 63 6 338 23 8 17 33 16 4 30 19 284 274 249 221 162 173 202 219 213 225 198 179 169 95 102 109 201 218 237 263 348 332 306 314 196 186 198 246 231 230 221 228 247 231 212 214 226 234 233 240 250 260 267 261 254 241 232 242 240 240 243 230 227 226 224 239 249 246 241 233 220 214 213 214
6 30 32 4 25 30 26 114 109 114 120 101 68 38 11 13 20 16 20 23 5 347 356 352 298 264 233 184 149 166 254 297 118 176 218 177 99 83 92 46 46 233 247 180 35 7 328 304 166 169 197 334 237 232 217 222 245 244 222 220 227 232 236 247 260 274 282 284 286 266 260 264 246 233 234 223 222 225 215 227 246 244 233 228 218 212 212 214
32 53 60 60 42 24 14 61 91 99 96 67 26 6 24 8 7 10 346 344 3 349 342 352 351 335 34 138 125 88 343 119 139 358 256 175 86 65 53 38 31 291 288 155 68 14 334 294 211 28 339 326 39 233 206 208 229 246 242 239 238 229 227 238 255 279 282 264 277 274 272 276 249 213 219 222 219 224 217 218 235 240 231 229 223 212 209 215
31 54 59 54 47 43 47 73 107 91 64 37 17 32 46 29 3 351 334 327 345 334 349 359 358 6 43 82 93 84 49 86 128 348 331 162 86 70 74 55 37 320 290 290 262 309 332 309 236 275 349 344 82 70 189 187 201 252 258 253 271 265 234 244 251 251 288 271 266 275 277 282 278 243 220 220 218 219 219 216 223 234 238 234 223 212 208 216
36 59 46 36 49 74 68 73 95 76 51 24 27 45 55 48 18 356 3 34 18 338 9 10 8 18 42 59 55 41 13 33 19 358 19 85 75 75 79 56 41 332 309 324 330 311 340 336 254 244 347 14 96 100 62 140 199 266 282 270 281 289 269 279 271 243 237 208 268 278 279 274 273 271 249 236 228 217 213 213 214 224 237 234 221 213 211 214
49 52 31 31 63 88 71 57 61 63 51 26 35 41 58 52 25 12 35 58 45 19 66 99 23 15 30 39 28 32 33 30 27 20 33 56 68 250 317 348 29 339 316 319 348 331 341 338 279 261 258 278 300 279 327 342 336 329 321 302 299 289 273 281 284 272 255 221 236 242 286 269 251 260 306 324 287 226 212 211 211 216 230 230 222 222 220 217
53 40 36 61 72 73 60 41 35 46 54 37 28 20 7 24 27 25 34 39 30 29 58 77 18 1 19 40 28 29 49 53 53 37 36 38 44 38 353 338 349 359 338 332 348 327 312 304 285 280 278 287 285 265 290 318 322 325 316 299 302 307 297 281 264 270 259 253 277 207 260 269 240 245 316 341 345 258 213 204 204 208 223 230 226 227 224 217
70 62 65 73 65 58 46 30 30 57 79 55 25 11 8 16 43 47 37 31 58 62 55 49 39 20 14 38 33 18 29 57 52 34 35 34 34 34 14 347 347 3 9 12 356 295 295 296 292 290 288 285 273 255 257 280 293 293 283 288 298 299 301 297 288 286 269 284 315 286 256 247 230 263 303 306 329 317 202 203 211 205 219 235 230 222 218 217
85 80 67 50 50 59 47 37 55 70 73 72 29 16 29 71 133 63 45 55 120 76 46 37 86 56 29 27 33 24 36 76 65 23 38 49 52 36 13 2 13 20 28 26 327 287 299 316 318 304 286 278 270 263 254 252 278 284 265 277 296 299 311 311 311 316 288 275 299 328 268 228 229 294 328 305 314 354 161 197 218 206 213 227 223 216 219 227
83 72 45 22 37 88 80 55 52 56 59 85 55 26 35 47 210 53 36 51 140 82 37 26 134 48 31 38 33 33 52 74 311 326 32 61 66 21 337 350 15 25 34 29 317 313 312 301 329 327 307 291 282 281 270 256 281 299 277 276 289 317 336 315 295 317 313 295 346 50 260 246 257 320 352 343 335 0 115 144 146 167 179 185 197 205 214 226
80 70 54 34 29 96 97 64 53 73 61 71 92 47 26 22 13 359 22 23 156 109 38 35 55 7 26 39 24 27 45 21 334 309 315 4 1 322 315 338 353 347 341 310 288 314 306 275 293 314 320 304 288 302 319 304 310 307 279 268 275 317 344 333 311 321 335 336 349 11 269 268 284 316 337 354 9 31 148 135 122 128 158 172 190 202 211 223
82 85 91 71 38 94 99 70 65 85 66 63 111 50 20 19 16 3 10 5 46 97 33 35 64 46 30 32 32 39 33 7 346 313 307 321 313 301 304 317 322 326 325 304 281 311 305 271 269 271 262 265 269 266 273 301 312 307 291 273 270 294 326 336 324 309 326 330 318 306 278 280 302 336 332 342 7 41 125 130 123 118 139 175 195 201 207 209
85 97 81 47 44 68 91 68 42 51 64 92 101 59 34 31 21 12 19 19 18 40 43 49 60 50 30 15 25 37 359 316 324 326 309 301 291 282 283 289 296 317 327 317 297 295 290 273 272 281 271 268 274 269 265 283 299 298 296 286 272 279 298 311 307 298 318 322 298 286 286 285 305 331 327 331 355 22 70 108 118 111 118 156 180 176 179 189
76 93 74 53 49 46 62 54 12 344 40 94 100 78 54 35 27 23 22 22 16 21 56 62 44 39 30 12 6 350 324 293 337 343 313 299 299 288 285 292 298 296 305 317 310 283 273 270 270 279 276 272 275 274 271 279 286 286 289 290 283 282 291 302 302 295 299 295 288 295 298 298 312 319 312 319 334 342 40 88 114 123 120 138 168 166 158 173
63 90 90 88 83 61 59 57 19 359 29 67 76 68 55 30 17 19 17 20 17 13 48 51 24 20 16 3 1 349 337 328 333 330 317 319 324 318 319 332 332 302 290 294 289 271 267 268 265 271 275 270 269 275 278 277 280 281 279 280 281 278 280 287 287 285 285 276 275 283 287 298 310 306 300 301 299 295 299 61 125 139 127 120 145 157 143 151
55 77 79 78 81 70 58 64 60 21 8 36 48 47 50 29 7 16 25 17 11 11 25 26 20 22 7 348 344 344 335 314 310 316 320 320 318 319 322 317 306 310 311 307 306 299 286 281 279 280 280 275 272 278 284 278 277 280 276 273 274 274 278 282 278 279 283 276 273 279 289 301 304 297 296 295 286 279 269 255 189 145 131 113 123 136 129 125
46 52 65 71 71 62 49 46 67 34 348 4 44 51 46 27 6 12 22 7 359 3 357 6 16 9 354 342 335 322 306 298 302 302 300 298 296 298 301 301 304 306 302 302 306 305 298 295 298 295 282 277 276 279 284 285 281 277 274 272 271 272 276 278 272 271 278 279 278 283 293 303 300 290 293 291 278 273 269 256 233 177 142 123 121 126 124 118
44 40 54 71 69 60 55 21 324 56 27 4 14 35 32 21 6 2 7 14 16 353 347 4 8 342 333 336 318 301 295 302 301 294 292 294 295 296 292 290 292 291 289 289 286 287 291 289 290 292 279 277 279 278 283 294 290 275 270 270 267 266 271 273 270 268 268 270 274 282 292 285 263 273 282 280 271 273 275 264 243 226 202 152 136 130 125 119
Height
3147 3145 3145 3144 3143 3142 3141 3140 3139 3139 3138 3137 3137 3136 3135 3135 3134 3134 3133 3132 3132 3131 3131 3131 3131 3131 3131 3131 3131 3132 3132 3133 3133 3134 3135 3137 3138 3138 3138 3139 3140 3141 3142 3143 3145 3147 3149 3150 3152 3154 3155 3156 3157 3159 3160 3163 3166 3167 3167 3166 3165 3165 3165 3166 3166 3164 3163 3163 3164 3164 3166 3167 3166 3167 3170 3171 3172 3171 3170 3171 3172 3173 3175 3177 3179 3180 3181 3182
3146 3145 3144 3143 3142 3141 3140 3139 3138 3138 3137 3136 3136 3135 3135 3134 3133 3133 3132 3131 3131 3130 3130 3130 3129 3129 3129 3129 3130 3130 3131 3131 3132 3133 3134 3135 3136 3137 3137 3138 3139 3140 3141 3143 3144 3146 3148 3149 3151 3152 3154 3155 3157 3159 3160 3162 3164 3166 3167 3166 3164 3164 3165 3166 3166 3165 3164 3165 3164 3164 3166 3168 3168 3168 3170 3172 3172 3172 3171 3171 3172 3173 3175 3177 3179 3181 3182 3183
3145 3144 3143 3142 3141 3140 3139 3138 3137 3137 3136 3136 3135 3134 3134 3133 3132 3132 3131 3130 3130 3129 3129 3128 3128 3128 3128 3128 3128 3128 3129 3129 3130 3132 3133 3134 3135 3135 3136 3137 3138 3139 3140 3142 3143 3145 3147 3148 3150 3151 3153 3154 3156 3158 3160 3162 3163 3164 3165 3165 3163 3164 3166 3166 3166 3165 3165 3167 3165 3164 3167 3169 3168 3169 3171 3171 3172 3172 3172 3172 3172 3173 3174 3177 3179 3181 3182 3183
3144 3142 3141 3140 3140 3139 3138 3137 3136 3135 3135 3134 3134 3133 3133 3132 3131 3131 3130 3129 3129 3128 3127 3127 3127 3126 3126 3126 3126 3127 3127 3127 3129 3132 3131 3131 3133 3134 3135 3136 3137 3138 3139 3140 3142 3143 3145 3145 3148 3150 3152 3153 3156 3158 3160 3161 3163 3164 3164 3163 3163 3165 3167 3167 3166 3165 3164 3166 3166 3166 3167 3168 3168 3171 3171 3171 3171 3172 3172 3172 3172 3173 3175 3177 3178 3181 3182 3184
3142 3141 3140 3139 3138 3138 3137 3136 3135 3134 3134 3133 3133 3132 3132 3131 3130 3130 3129 3128 3128 3127 3126 3126 3125 3125 3125 3125 3125 3125 3125 3125 3127 3130 3129 3130 3131 3133 3134 3135 3136 3137 3138 3139 3140 3142 3143 3144 3146 3149 3151 3153 3155 3157 3159 3161 3163 3164 3163 3162 3163 3165 3166 3167 3167 3165 3164 3165 3166 3167 3168 3168 3169 3171 3171 3172 3172 3172 3172 3173 3173 3174 3176 3177 3178 3181 3182 3184
3141 3140 3139 3138 3137 3136 3136 3135 3134 3133 3133 3132 3132 3131 3131 3130 3129 3128 3128 3127 3127 3126 3126 3125 3124 3124 3124 3124 3124 3124 3124 3124 3126 3127 3127 3129 3130 3131 3133 3134 3135 3136 3137 3138 3139 3141 3143 3143 3144 3148 3151 3152 3154 3156 3158 3160 3163 3163 3163 3163 3164 3166 3166 3166 3167 3166 3165 3165 3165 3166 3168 3168 3169 3170 3171 3172 3173 3173 3174 3174 3175 3176 3177 3179 3180 3181 3182 3184
3140 3139 3137 3136 3135 3135 3134 3133 3133 3132 3131 3131 3130 3130 3129 3129 3128 3127 3127 3126 3126 3125 3125 3124 3123 3123 3122 3122 3123 3123 3123 3122 3123 3126 3127 3127 3129 3130 3131 3133 3134 3135 3136 3138 3139 3140 3141 3143 3143 3147 3151 3152 3153 3155 3157 3160 3162 3162 3163 3164 3164 3166 3166 3166 3166 3166 3166 3165 3164 3166 3168 3169 3169 3170 3171 3172 3173 3174 3174 3174 3175 3176 3178 3180 3181 3182 3183 3184
3139 3137 3136 3135 3134 3133 3132 3132 3131 3130 3130 3129 3129 3128 3127 3127 3127 3126 3125 3125 3124 3124 3123 3123 3122 3122 3121 3121 3122 3122 3121 3120 3121 3125 3126 3126 3127 3129 3130 3131 3133 3134 3136 3137 3138 3139 3141 3142 3143 3147 3150 3152 3153 3155 3157 3159 3160 3161 3162 3163 3164 3165 3166 3166 3165 3165 3166 3164 3164 3166 3168 3169 3170 3170 3171 3173 3173 3174 3174 3175 3176 3177 3178 3179 3181 3182 3183 3185
3137 3136 3135 3133 3132 3131 3130 3130 3129 3129 3128 3127 3127 3126 3126 3125 3125 3125 3124 3123 3123 3123 3122 3122 3121 3121 3121 3120 3121 3120 3119 3119 3121 3123 3124 3125 3126 3127 3129 3130 3131 3133 3135 3136 3137 3138 3140 3141 3143 3147 3150 3152 3153 3155 3157 3158 3159 3161 3162 3162 3163 3163 3165 3166 3165 3164 3164 3164 3165 3166 3167 3169 3170 3170 3171 3173 3173 3174 3174 3175 3176 3177 3178 3179 3181 3182 3183 3185
3134 3134 3133 3132 3131 3130 3129 3128 3127 3127 3126 3126 3125 3125 3124 3124 3123 3123 3123 3122 3122 3122 3121 3121 3120 3120 3119 3119 3119 3119 3119 3119 3120 3121 3123 3124 3125 3126 3127 3128 3130 3132 3133 3135 3136 3137 3139 3141 3143 3147 3150 3151 3153 3154 3155 3157 3158 3159 3160 3161 3162 3163 3164 3166 3166 3164 3162 3162 3166 3167 3167 3169 3169 3170 3171 3172 3173 3173 3174 3175 3177 3177 3178 3179 3180 3182 3184 3185
3132 3131 3131 3130 3129 3128 3127 3126 3125 3124 3124 3124 3123 3123 3122 3122 3122 3121 3121 3121 3120 3120 3120 3120 3119 3119 3118 3119 3118 3118 3119 3119 3120 3121 3121 3122 3123 3124 3126 3127 3128 3130 3132 3134 3135 3137 3139 3140 3143 3147 3150 3150 3152 3153 3154 3154 3155 3156 3157 3157 3159 3161 3162 3164 3166 3167 3163 3161 3165 3167 3167 3168 3169 3170 3170 3171 3172 3173 3174 3175 3176 3178 3179 3180 3180 3182 3183 3185
3130 3129 3128 3127 3126 3125 3125 3124 3123 3122 3122 3121 3121 3121 3121 3120 3120 3120 3120 3119 3119 3119 3119 3118 3118 3118 3117 3118 3117 3117 3118 3118 3119 3120 3120 3120 3122 3123 3124 3126 3127 3129 3131 3133 3135 3137 3139 3139 3141 3145 3148 3149 3151 3153 3153 3153 3154 3155 3155 3155 3157 3158 3160 3162 3163 3166 3164 3160 3162 3165 3166 3166 3167 3168 3169 3170 3171 3173 3174 3175 3176 3178 3178 3180 3181 3182 3183 3184
3128 3127 3126 3125 3124 3123 3122 3122 3121 3120 3120 3119 3119 3119 3119 3118 3118 3118 3118 3118 3117 3117 3117 3117 3117 3117 3116 3116 3116 3116 3117 3117 3118 3118 3119 3119 3120 3121 3123 3124 3126 3128 3129 3132 3134 3136 3139 3139 3140 3143 3146 3148 3149 3150 3151 3152 3154 3155 3155 3155 3156 3156 3156 3159 3161 3163 3163 3159 3160 3163 3164 3165 3166 3167 3169 3169 3170 3172 3174 3175 3175 3176 3178 3179 3180 3181 3183 3184
3126 3125 3124 3123 3122 3121 3120 3119 3119 3118 3117 3117 3117 3117 3117 3116 3116 3116 3116 3116 3116 3115 3115 3115 3115 3115 3115 3115 3115 3116 3116 3116 3116 3117 3118 3118 3119 3120 3122 3123 3125 3126 3128 3130 3132 3134 3138 3139 3140 3141 3143 3145 3146 3148 3148 3149 3150 3152 3154 3153 3154 3154 3153 3157 3159 3161 3162 3158 3159 3162 3163 3165 3166 3167 3168 3169 3170 3171 3173 3174 3175 3175 3177 3178 3180 3181 3182 3183
3124 3123 3121 3121 3120 3119 3118 3117 3116 3115 3115 3115 3114 3114 3114 3114 3114 3114 3114 3114 3114 3114 3114 3114 3113 3113 3114 3114 3114 3115 3115 3114 3115 3116 3116 3117 3118 3119 3120 3122 3124 3125 3127 3129 3130 3132 3135 3138 3139 3140 3141 3143 3144 3146 3147 3147 3148 3149 3151 3151 3152 3152 3152 3154 3156 3157 3159 3158 3158 3160 3161 3164 3166 3167 3169 3170 3171 3172 3172 3173 3174 3175 3177 3178 3179 3180 3181 3183
3122 3120 3119 3118 3118 3117 3116 3115 3114 3113 3113 3112 3112 3112 3112 3112 3112 3112 3112 3112 3112 3112 3112 3112 3112 3112 3113 3113 3113 3113 3114 3114 3114 3115 3115 3116 3117 3117 3119 3121 3122 3124 3126 3128 3130 3130 3132 3134 3137 3138 3139 3142 3143 3145 3147 3147 3147 3148 3149 3150 3150 3150 3150 3152 3152 3153 3157 3157 3157 3158 3159 3162 3165 3167 3169 3170 3171 3171 3172 3173 3174 3175 3176 3177 3178 3179 3180 3182
3119 3118 3117 3116 3115 3115 3114 3113 3112 3112 3111 3111 3110 3110 3110 3110 3110 3110 3111 3111 3111 3111 3111 3111 3111 3112 3112 3112 3112 3113 3113 3114 3114 3114 3114 3115 3116 3116 3118 3120 3121 3123 3125 3127 3129 3129 3131 3132 3134 3136 3138 3140 3142 3144 3145 3144 3145 3147 3148 3147 3147 3148 3149 3149 3149 3150 3153 3155 3156 3157 3157 3159 3162 3165 3167 3169 3170 3171 3172 3172 3173 3174 3175 3176 3177 3178 3179 3181
3118 3116 3115 3114 3113 3113 3112 3111 3110 3110 3109 3109 3109 3109 3108 3108 3109 3109 3109 3109 3110 3110 3110 3110 3110 3112 3112 3111 3112 3112 3112 3113 3114 3114 3114 3114 3115 3116 3117 3119 3120 3122 3124 3126 3127 3129 3130 3132 3134 3135 3137 3138 3139 3141 3141 3141 3143 3144 3145 3145 3145 3146 3147 3147 3147 3148 3150 3151 3153 3155 3154 3156 3159 3161 3165 3167 3169 3170 3171 3172 3172 3173 3174 3175 3176 3177 3178 3180
3116 3114 3113 3112 3111 3111 3110 3109 3108 3108 3107 3107 3108 3107 3107 3107 3107 3107 3107 3108 3108 3108 3108 3109 3109 3111 3111 3111 3113 3112 3112 3113 3113 3113 3113 3114 3114 3116 3116 3117 3119 3121 3122 3124 3126 3128 3129 3131 3132 3133 3134 3136 3137 3138 3139 3140 3142 3142 3144 3145 3146 3146 3145 3145 3145 3145 3147 3148 3150 3152 3150 3151 3155 3158 3161 3163 3166 3168 3169 3171 3172 3172 3173 3174 3175 3176 3177 3179
3114 3112 3111 3110 3109 3109 3108 3107 3106 3106 3106 3106 3106 3106 3105 3106 3106 3105 3105 3106 3107 3107 3107 3108 3109 3110 3110 3111 3112 3111 3112 3112 3112 3112 3113 3113 3114 3115 3116 3117 3119 3120 3121 3123 3125 3127 3128 3129 3129 3130 3132 3134 3136 3138 3139 3141 3141 3141 3143 3144 3144 3144 3142 3143 3144 3144 3146 3146 3147 3149 3147 3146 3151 3155 3158 3160 3162 3166 3167 3168 3170 3171 3172 3172 3174 3175 3176 3178
3112 3111 3110 3109 3108 3107 3106 3105 3105 3105 3105 3105 3105 3105 3105 3105 3105 3104 3104 3105 3105 3106 3105 3106 3108 3108 3108 3109 3110 3110 3111 3111 3111 3112 3112 3113 3113 3114 3115 3116 3118 3119 3120 3123 3125 3126 3127 3127 3127 3129 3132 3134 3136 3138 3139 3140 3140 3141 3142 3142 3142 3141 3139 3140 3141 3142 3144 3145 3145 3147 3146 3143 3146 3151 3154 3157 3159 3161 3163 3165 3167 3169 3170 3171 3173 3174 3175 3176
3111 3109 3108 3107 3106 3105 3104 3104 3103 3103 3104 3104 3104 3104 3104 3104 3104 3103 3103 3103 3104 3104 3104 3104 3106 3107 3107 3108 3108 3109 3110 3110 3111 3112 3112 3113 3114 3114 3115 3116 3118 3119 3120 3122 3124 3125 3125 3124 3126 3129 3132 3134 3135 3137 3138 3139 3140 3140 3141 3142 3141 3140 3138 3138 3138 3139 3142 3144 3144 3145 3144 3140 3141 3145 3149 3153 3154 3156 3159 3162 3164 3166 3168 3170 3171 3172 3173 3175
3110 3108 3107 3106 3105 3104 3103 3102 3102 3103 3103 3103 3103 3103 3103 3103 3103 3103 3103 3102 3102 3102 3102 3103 3104 3106 3107 3107 3107 3108 3109 3110 3111 3112 3112 3113 3114 3114 3115 3116 3118 3119 3120 3121 3122 3123 3123 3123 3126 3129 3130 3132 3134 3135 3137 3138 3139 3140 3140 3141 3141 3140 3140 3138 3137 3137 3139 3142 3143 3144 3144 3141 3140 3144 3147 3149 3151 3154 3157 3160 3162 3165 3166 3168 3169 3170 3172 3173
3108 3107 3106 3105 3104 3103 3102 3102 3102 3102 3102 3101 3101 3101 3102 3102 3102 3102 3102 3101 3101 3101 3101 3102 3104 3106 3106 3106 3106 3108 3109 3109 3110 3111 3111 3112 3113 3113 3115 3116 3117 3119 3120 3121 3121 3122 3122 3123 3126 3127 3128 3130 3132 3134 3135 3136 3137 3138 3139 3140 3140 3140 3139 3138 3138 3138 3137 3138 3140 3141 3143 3143 3143 3145 3148 3150 3152 3153 3155 3157 3159 3162 3164 3166 3168 3169 3170 3171
3107 3106 3104 3103 3103 3102 3101 3101 3101 3102 3101 3101 3101 3101 3101 3101 3101 3101 3100 3100 3099 3099 3100 3101 3103 3104 3105 3105 3106 3107 3108 3108 3109 3110 3110 3112 3112 3112 3114 3115 3116 3118 3119 3120 3121 3121 3122 3123 3125 3126 3127 3128 3130 3131 3133 3135 3135 3136 3137 3138 3140 3139 3139 3138 3138 3138 3137 3136 3137 3138 3140 3143 3144 3144 3145 3148 3150 3151 3152 3154 3156 3158 3161 3162 3164 3166 3168 3169
3106 3105 3103 3102 3101 3101 3101 3101 3100 3100 3100 3100 3100 3100 3100 3100 3100 3100 3100 3099 3099 3098 3100 3101 3103 3104 3104 3105 3105 3106 3107 3108 3109 3110 3110 3111 3111 3111 3112 3114 3115 3116 3118 3119 3120 3120 3121 3123 3124 3125 3126 3127 3128 3129 3131 3133 3134 3134 3135 3137 3138 3139 3138 3138 3137 3138 3138 3136 3136 3138 3140 3142 3143 3143 3144 3146 3147 3148 3150 3152 3154 3156 3157 3159 3160 3163 3165 3166
3105 3103 3102 3101 3100 3100 3100 3100 3100 3099 3098 3099 3099 3099 3100 3100 3100 3100 3099 3099 3098 3098 3100 3101 3102 3103 3104 3104 3105 3105 3107 3108 3109 3109 3109 3110 3110 3111 3112 3113 3114 3116 3117 3118 3118 3118 3119 3121 3123 3124 3125 3125 3126 3127 3129 3131 3132 3132 3134 3135 3136 3137 3138 3138 3138 3138 3138 3136 3134 3136 3138 3140 3142 3142 3143 3144 3146 3147 3149 3150 3153 3154 3155 3156 3157 3159 3162 3164
3103 3102 3101 3100 3099 3099 3099 3099 3099 3099 3098 3098 3098 3099 3099 3100 3100 3099 3099 3099 3098 3098 3100 3101 3102 3103 3103 3104 3105 3105 3106 3107 3109 3109 3109 3110 3110 3110 3111 3112 3113 3114 3115 3116 3116 3116 3118 3120 3121 3122 3123 3123 3124 3125 3128 3129 3130 3131 3133 3133 3134 3135 3136 3137 3137 3137 3138 3137 3134 3133 3135 3137 3138 3138 3140 3143 3144 3146 3147 3149 3150 3151 3152 3153 3155 3156 3159 3161
3102 3101 3100 3099 3098 3098 3098 3098 3098 3098 3098 3098 3098 3099 3099 3099 3100 3099 3100 3100 3098 3098 3100 3101 3102 3103 3103 3104 3105 3105 3106 3108 3109 3108 3109 3109 3110 3110 3111 3111 3111 3111 3112 3114 3114 3113 3115 3117 3118 3119 3120 3121 3123 3124 3126 3127 3129 3130 3132 3132 3132 3133 3134 3135 3136 3136 3137 3137 3135 3134 3135 3137 3136 3136 3137 3139 3141 3143 3144 3146 3147 3149 3150 3151 3153 3154 3156 3159
3101 3100 3099 3098 3097 3097 3097 3097 3097 3097 3097 3097 3098 3098 3099 3099 3099 3100 3101 3101 3098 3099 3101 3101 3103 3104 3103 3104 3105 3106 3107 3108 3109 3108 3109 3109 3109 3110 3111 3111 3111 3111 3111 3112 3112 3111 3111 3114 3115 3116 3118 3120 3122 3123 3124 3125 3127 3129 3130 3131 3131 3132 3133 3133 3134 3135 3135 3135 3135 3135 3135 3137 3137 3136 3135 3135 3135 3138 3140 3142 3144 3146 3148 3149 3151 3152 3154 3156
3100 3099 3098 3097 3096 3096 3096 3096 3097 3096 3097 3097 3098 3098 3099 3099 3100 3100 3101 3099 3099 3100 3101 3102 3103 3103 3104 3104 3105 3106 3106 3108 3108 3108 3108 3109 3109 3110 3110 3111 3111 3112 3112 3112 3112 3111 3111 3112 3114 3115 3116 3118 3120 3122 3123 3125 3126 3127 3128 3129 3131 3131 3132 3133 3133 3134 3135 3135 3136 3135 3136 3136 3135 3134 3135 3134 3133 3134 3135 3138 3140 3142 3144 3146 3148 3150 3152 3154
3099 3097 3096 3096 3096 3095 3095 3096 3096 3096 3096 3097 3097 3098 3099 3099 3100 3100 3099 3099 3100 3101 3101 3102 3103 3104 3104 3104 3105 3106 3106 3107 3108 3108 3108 3109 3110 3110 3111 3111 3112 3112 3112 3113 3113 3112 3111 3112 3113 3115 3116 3117 3118 3119 3122 3124 3125 3126 3127 3128 3130 3131 3132 3133 3132 3133 3134 3135 3135 3136 3136 3134 3132 3132 3134 3134 3133 3133 3133 3135 3136 3138 3140 3142 3144 3147 3149 3151
3097 3096 3095 3095 3095 3094 3095 3095 3095 3096 3096 3097 3098 3099 3099 3100 3101 3101 3100 3100 3100 3101 3102 3102 3103 3104 3104 3104 3105 3106 3106 3107 3108 3108 3108 3109 3110 3111 3111 3111 3112 3112 3112 3112 3112 3111 3111 3111 3113 3116 3116 3117 3119 3119 3120 3122 3124 3125 3126 3128 3130 3131 3133 3134 3132 3132 3134 3134 3134 3135 3135 3131 3129 3130 3132 3132 3132 3132 3132 3133 3135 3136 3137 3139 3142 3144 3146 3148
3096 3095 3094 3094 3094 3094 3094 3094 3095 3095 3096 3097 3099 3099 3100 3101 3101 3101 3100 3100 3101 3102 3102 3102 3103 3104 3104 3104 3105 3105 3106 3107 3108 3108 3108 3108 3109 3110 3110 3109 3110 3112 3111 3112 3112 3112 3111 3111 3112 3114 3115 3116 3117 3118 3119 3121 3122 3123 3125 3128 3129 3129 3131 3131 3130 3130 3131 3131 3130 3131 3131 3128 3126 3127 3129 3130 3130 3131 3130 3131 3133 3135 3135 3137 3139 3141 3144 3146
3095 3094 3094 3094 3094 3094 3094 3094 3095 3095 3096 3098 3099 3100 3101 3102 3102 3102 3101 3101 3102 3102 3102 3102 3103 3103 3103 3104 3105 3106 3107 3107 3107 3108 3108 3109 3109 3109 3109 3109 3110 3111 3111 3112 3113 3112 3111 3111 3110 3112 3114 3116 3117 3117 3119 3120 3120 3121 3123 3125 3126 3126 3128 3128 3127 3127 3128 3129 3128 3127 3126 3124 3123 3124 3126 3127 3128 3129 3129 3128 3130 3132 3133 3135 3137 3139 3141 3144
3095 3094 3094 3095 3094 3094 3095 3095 3095 3096 3097 3098 3099 3101 3103 3103 3104 3103 3102 3102 3103 3103 3103 3102 3102 3102 3102 3103 3105 3106 3106 3106 3107 3108 3108 3110 3110 3110 3110 3110 3111 3111 3112 3113 3114 3113 3112 3109 3108 3109 3111 3113 3114 3115 3117 3118 3119 3120 3121 3123 3124 3125 3127 3127 3127 3126 3126 3128 3127 3124 3122 3121 3122 3122 3122 3124 3125 3125 3126 3126 3126 3128 3130 3131 3133 3135 3138 3140
3096 3095 3095 3096 3095 3095 3096 3096 3097 3098 3098 3099 3100 3103 3104 3104 3104 3104 3103 3103 3103 3103 3104 3103 3102 3103 3102 3103 3105 3106 3106 3106 3108 3108 3108 3109 3111 3112 3112 3111 3112 3112 3113 3114 3115 3115 3113 3109 3106 3108 3107 3107 3109 3110 3113 3116 3118 3119 3120 3122 3123 3125 3125 3126 3127 3126 3126 3127 3125 3122 3120 3119 3119 3119 3120 3121 3121 3121 3123 3125 3124 3124 3127 3129 3129 3131 3134 3136
3097 3097 3097 3097 3097 3098 3098 3098 3099 3099 3099 3101 3102 3104 3105 3105 3104 3103 3103 3104 3104 3104 3104 3104 3103 3104 3104 3104 3106 3107 3107 3107 3108 3108 3108 3108 3110 3112 3112 3112 3112 3112 3113 3115 3115 3115 3115 3111 3106 3108 3108 3106 3107 3109 3112 3115 3118 3119 3120 3121 3122 3123 3124 3125 3126 3126 3127 3127 3125 3121 3119 3117 3117 3118 3118 3118 3118 3119 3120 3122 3122 3122 3123 3126 3127 3128 3131 3134
3098 3098 3098 3098 3099 3100 3100 3100 3100 3100 3101 3104 3104 3105 3106 3106 3105 3104 3103 3104 3104 3104 3104 3105 3104 3105 3106 3106 3107 3107 3108 3108 3108 3108 3108 3108 3110 3112 3112 3112 3112 3113 3113 3115 3116 3115 3116 3114 3108 3107 3110 3109 3109 3111 3114 3117 3119 3119 3119 3119 3121 3122 3123 3124 3124 3124 3126 3126 3125 3123 3120 3117 3115 3116 3118 3119 3118 3117 3116 3116 3118 3118 3118 3122 3126 3127 3129 3132
3099 3099 3099 3100 3101 3101 3101 3101 3101 3101 3104 3106 3106 3106 3106 3106 3106 3105 3104 3104 3105 3104 3104 3105 3105 3105 3106 3107 3108 3107 3108 3109 3109 3109 3110 3110 3111 3111 3111 3111 3112 3113 3114 3115 3116 3116 3116 3117 3110 3106 3109 3112 3111 3111 3113 3114 3116 3118 3118 3117 3119 3121 3123 3123 3123 3123 3123 3124 3125 3125 3122 3117 3114 3115 3118 3119 3117 3116 3115 3114 3115 3116 3114 3116 3122 3125 3127 3130
3100 3100 3101 3102 3102 3103 3102 3102 3102 3103 3105 3106 3106 3106 3107 3107 3107 3106 3106 3106 3106 3105 3106 3106 3106 3107 3107 3107 3108 3107 3107 3109 3109 3110 3111 3111 3111 3111 3111 3112 3113 3113 3113 3114 3116 3116 3116 3117 3113 3109 3109 3111 3111 3110 3111 3112 3114 3117 3118 3118 3119 3121 3123 3122 3121 3121 3121 3122 3122 3123 3122 3116 3112 3114 3115 3113 3112 3112 3113 3114 3114 3116 3115 3113 3117 3122 3124 3127
3100 3101 3103 3104 3104 3103 3102 3103 3104 3105 3106 3107 3107 3107 3107 3107 3107 3106 3106 3106 3105 3105 3107 3107 3107 3107 3107 3108 3109 3108 3108 3109 3110 3112 3113 3112 3112 3113 3112 3112 3113 3113 3114 3115 3115 3116 3116 3117 3115 3113 3111 3111 3111 3111 3112 3113 3114 3115 3116 3118 3119 3121 3123 3122 3120 3119 3118 3119 3119 3120 3121 3114 3110 3116 3116 3111 3109 3109 3112 3115 3116 3116 3115 3113 3115 3118 3120 3124
3102 3103 3104 3105 3105 3103 3102 3104 3106 3106 3107 3108 3108 3108 3107 3107 3107 3106 3105 3105 3105 3105 3106 3107 3107 3106 3107 3108 3109 3109 3109 3111 3111 3112 3114 3114 3114 3114 3113 3112 3113 3114 3114 3116 3115 3115 3116 3117 3116 3114 3111 3110 3110 3112 3113 3114 3115 3115 3114 3116 3118 3119 3120 3119 3119 3119 3117 3117 3117 3119 3120 3114 3111 3115 3115 3110 3109 3109 3109 3112 3114 3116 3116 3114 3113 3115 3117 3121
3105 3105 3106 3107 3106 3104 3103 3105 3107 3107 3108 3109 3109 3108 3108 3107 3107 3107 3105 3105 3106 3106 3106 3107 3108 3108 3108 3108 3109 3110 3111 3112 3112 3112 3113 3114 3116 3115 3112 3111 3113 3114 3115 3116 3115 3115 3117 3118 3117 3116 3115 3112 3110 3111 3113 3113 3114 3115 3113 3113 3115 3117 3117 3115 3115 3117 3117 3115 3115 3117 3118 3113 3110 3112 3112 3109 3111 3111 3108 3108 3109 3111 3110 3108 3110 3113 3114 3118
3105 3106 3108 3108 3107 3106 3105 3105 3107 3108 3108 3109 3109 3109 3108 3107 3107 3107 3107 3106 3107 3107 3107 3108 3108 3109 3110 3110 3110 3111 3112 3112 3112 3112 3112 3113 3114 3113 3111 3112 3113 3114 3115 3116 3116 3116 3118 3118 3118 3119 3119 3117 3114 3113 3115 3114 3114 3115 3114 3112 3113 3116 3117 3115 3114 3116 3117 3115 3114 3116 3114 3109 3108 3112 3111 3110 3113 3113 3111 3110 3109 3107 3105 3105 3107 3112 3116 3118
3105 3106 3108 3107 3106 3107 3107 3107 3108 3107 3108 3108 3109 3109 3109 3108 3108 3108 3107 3107 3107 3108 3108 3108 3109 3110 3110 3110 3110 3111 3112 3112 3112 3112 3111 3111 3110 3110 3110 3111 3112 3113 3114 3115 3115 3116 3117 3117 3117 3119 3119 3118 3116 3115 3115 3117 3117 3115 3115 3112 3111 3114 3117 3117 3116 3117 3118 3115 3112 3114 3114 3108 3109 3113 3111 3110 3113 3113 3111 3110 3109 3108 3107 3108 3109 3111 3115 3116
3106 3107 3108 3108 3107 3108 3108 3108 3108 3107 3107 3108 3108 3110 3110 3110 3109 3108 3108 3108 3108 3108 3108 3109 3110 3110 3110 3110 3110 3111 3111 3111 3111 3112 3111 3111 3110 3110 3110 3111 3112 3113 3113 3114 3115 3115 3116 3115 3116 3117 3117 3116 3117 3115 3114 3116 3117 3116 3115 3113 3111 3113 3115 3117 3116 3116 3118 3116 3111 3112 3114 3110 3110 3114 3112 3110 3111 3111 3109 3108 3108 3106 3106 3109 3111 3111 3110 3112
3107 3108 3109 3108 3109 3110 3110 3110 3109 3108 3108 3108 3108 3109 3110 3110 3109 3109 3109 3109 3109 3108 3109 3110 3110 3110 3111 3111 3111 3111 3111 3111 3112 3112 3112 3112 3112 3112 3112 3112 3114 3114 3114 3114 3114 3115 3115 3114 3114 3115 3114 3114 3115 3116 3114 3114 3115 3115 3114 3114 3112 3111 3112 3114 3115 3116 3118 3116 3111 3111 3112 3111 3112 3114 3113 3112 3112 3111 3109 3107 3107 3105 3104 3106 3109 3109 3109 3111
3109 3109 3109 3109 3110 3111 3111 3111 3111 3109 3109 3109 3109 3109 3110 3110 3110 3110 3110 3111 3110 3110 3110 3110 3111 3111 3112 3112 3112 3112 3112 3112 3113 3113 3113 3113 3113 3113 3113 3113 3114 3114 3113 3114 3114 3114 3113 3113 3114 3114 3113 3111 3112 3114 3114 3113 3112 3112 3112 3112 3112 3110 3111 3112 3114 3115 3116 3114 3111 3111 3112 3111 3112 3113 3112 3112 3112 3111 3110 3109 3107 3105 3104 3104 3105 3107 3108 3111
3110 3110 3110 3109 3110 3111 3111 3112 3112 3110 3109 3110 3110 3110 3111 3111 3111 3110 3111 3111 3111 3110 3110 3111 3112 3112 3113 3113 3113 3113 3113 3113 3113 3113 3113 3113 3113 3113 3113 3113 3113 3113 3113 3113 3113 3113 3112 3112 3113 3113 3112 3110 3110 3111 3113 3112 3111 3110 3109 3109 3110 3110 3110 3111 3112 3113 3113 3112 3110 3110 3111 3111 3112 3111 3112 3112 3111 3110 3111 3110 3107 3105 3105 3105 3105 3105 3108 3110
3111 3111 3111 3110 3111 3112 3112 3112 3112 3110 3110 3110 3110 3111 3112 3112 3111 3111 3111 3111 3111 3111 3111 3111 3112 3112 3113 3113 3113 3113 3112 3112 3112 3112 3112 3112 3112 3112 3112 3112 3112 3112 3112 3113 3112 3111 3111 3111 3112 3112 3111 3108 3109 3110 3111 3111 3111 3109 3106 3107 3109 3110 3109 3109 3110 3111 3112 3111 3110 3109 3111 3111 3110 3108 3108 3109 3108 3107 3109 3109 3107 3105 3105 3105 3105 3105 3107 3109
3113 3113 3111 3110 3112 3113 3113 3112 3112 3111 3110 3111 3111 3111 3112 3112 3112 3111 3111 3111 3111 3111 3112 3111 3112 3112 3112 3112 3112 3112 3111 3111 3111 3111 3110 3110 3110 3110 3110 3111 3111 3111 3111 3112 3111 3110 3110 3110 3110 3112 3110 3106 3107 3110 3109 3110 3109 3106 3105 3106 3107 3108 3108 3107 3107 3109 3110 3110 3110 3109 3108 3108 3108 3106 3105 3105 3105 3105 3106 3107 3106 3105 3104 3105 3105 3105 3106 3108